Погода в Звездном

Россия / Ханты-Мансийский автономный округ - Югра     61°16′47″N   73°24′18″E
темп.,
°C
ветер,
м/с
пор.,
м/с
влажн.,
%
обл.,
%
осадки,
мм/ч
давл.,
гПа
погр.,
м
24 мая, вт
вт2423:00+10ю3872100 0.2 1010305
02:00+9ююв3688100 0.2 1010358
05:00+9юв3594100 0.4 1011257
08:00+10ю2392100 0.1 1012298
11:00+12юз238053 0.1 1013564
14:00+17юз245697 0.1 10141532
17:00+17юв2357100 0.1 1014944
20:00+14ююв358360 0.1 1014140
25 мая, ср
ср2523:00+12юв23942 0.1 101555
02:00+11ю2296100 0.0 101618
05:00+12ююв019470 0.0 101717
08:00+16в2175100 0.0 1018443
11:00+19вюв2259100 0.0 1019886
14:00+22в2250100 0.0 10191097
17:00+22в3348100 0.0 1019965
20:00+20в3863100 0.0 1019155
26 мая, чт
чт2623:00+17вюв397698 0.3 1019153
02:00+15вюв498295 0.2 1019188
05:00+15вюв41084100 0.3 1019273
08:00+20вюв6106596 0.1 1018508
11:00+23вюв6852100 0.1 1017880
14:00+25вюв7843100 0.0 10161552
17:00+25вюв7944100 0.0 10151542
20:00+21вюв7145392 0.0 1014519
27 мая, пт
пт2723:00+18в716585 0.0 1013481
02:00+15вюв715633 0.0 1012443
05:00+15вюв716624 0.0 1011505
08:00+19вюв814485 0.0 1009685
11:00+24юв81240100 0.0 10081565
14:00+19ю71168100 0.9 1009826
17:00+15ю3790100 6.4 1009688
20:00+11з6983100 0.3 1012687
28 мая, сб
сб2823:00+10з38865 0.3 1013334
02:00+8зсз12865 0.0 101513
05:00+10зюз12799 0.0 1015104
08:00+14юз226054 0.0 1016579
11:00+17з11447 0.0 10161499
14:00+20ссв01383 0.0 10161698
17:00+20св11385 0.0 10151652
20:00+17всв225230 0.0 101642